CW1439 Weather Reports


Display with metric or nautical units.
time (UTC)temp
F
wind
direction
speed
MPH
gust
MPH
rain 1hr
in
rain 24hr
in
rain mn
in
humidity
%
barometer
mb
20260507065837 51 23 0.0 4.0 0.00 0.78 0.00 85 1010.7
20260507065338 51 12 0.0 2.0 0.00 0.78 0.00 85 1010.6
20260507064911 51 23 0.0 5.0 0.00 0.78 0.00 85 1010.6
20260507064351 51 8 1.0 5.0 0.00 0.78 0.00 84 1010.7
20260507063850 51 1 2.0 5.0 0.00 0.78 0.00 85 1010.7
20260507063348 51 338 0.0 5.0 0.00 0.78 0.00 86 1010.7
20260507062904 51 60 0.0 5.0 0.00 0.78 0.00 87 1010.6
20260507062340 51 1 3.0 5.0 0.00 0.78 0.00 87 1010.6
20260507061837 51 19 0.0 5.0 0.00 0.78 0.00 87 1010.6
20260507061416 51 23 3.0 8.0 0.00 0.78 0.00 87 1010.7
20260507060852 51 344 4.0 8.0 0.00 0.78 0.00 87 1010.6
20260507060410 51 32 1.0 5.0 0.00 0.78 0.00 87 1010.7
20260507055840 51 15 3.0 5.0 0.00 0.78 0.00 88 1010.5
20260507055339 51 51 3.0 5.0 0.00 0.78 0.00 88 1010.4
20260507054856 51 40 1.0 6.0 0.00 0.78 0.78 88 1010.5
20260507054352 52 19 2.0 6.0 0.00 0.78 0.78 87 1010.5
20260507053849 52 13 2.0 5.0 0.00 0.78 0.78 87 1010.4
20260507053344 51 15 3.0 4.0 0.00 0.78 0.78 88 1010.4
20260507052837 51 19 0.0 5.0 0.00 0.78 0.78 88 1010.7
20260507052354 51 19 2.0 6.0 0.00 0.78 0.78 88 1010.6
20260507051852 51 5 2.0 6.0 0.00 0.78 0.78 88 1010.7
20260507051349 51 8 3.0 6.0 0.00 0.78 0.78 88 1010.4
20260507050850 51 9 4.0 7.0 0.00 0.78 0.78 88 1010.3
20260507050345 51 276 0.0 7.0 0.00 0.78 0.78 88 1010.5
20260507045837 51 12 2.0 6.0 0.00 0.78 0.78 88 1010.5
20260507045353 52 1 2.0 7.0 0.00 0.78 0.78 88 1010.4
20260507044848 52 22 3.0 7.0 0.00 0.78 0.78 88 1010.6
20260507044343 52 103 3.0 5.0 0.00 0.78 0.78 88 1010.6
20260507043839 52 18 1.0 5.0 0.00 0.78 0.78 88 1010.5
20260507043417 52 4 3.0 6.0 0.00 0.78 0.78 87 1010.5
20260507042910 52 19 1.0 9.0 0.00 0.78 0.78 86 1010.5
20260507042343 52 5 5.0 9.0 0.00 0.78 0.78 86 1010.6
20260507041857 52 37 4.0 8.0 0.00 0.78 0.78 85 1010.7
20260507041354 52 13 4.0 8.0 0.00 0.78 0.78 85 1010.6
20260507040851 53 29 2.0 5.0 0.00 0.78 0.78 86 1010.5
20260507040406 53 8 3.0 5.0 0.00 0.78 0.78 86 1010.6
20260507035843 53 8 0.0 4.0 0.00 0.78 0.78 86 1010.6
20260507035339 53 355 1.0 9.0 0.00 0.78 0.78 86 1010.3
20260507034854 53 323 3.0 9.0 0.00 0.78 0.78 85 1010.3
20260507034351 53 13 2.0 7.0 0.00 0.78 0.78 86 1010.3
20260507033845 53 5 4.0 6.0 0.00 0.78 0.78 86 1009.9
20260507033341 53 25 3.0 8.0 0.00 0.78 0.78 87 1009.9
20260507032854 53 18 4.0 8.0 0.00 0.78 0.78 86 1010.1
20260507032351 53 350 2.0 7.0 0.00 0.78 0.78 87 1010.0
20260507031847 54 360 3.0 6.0 0.00 0.78 0.78 87 1010.0
20260507031343 54 9 0.0 8.0 0.00 0.78 0.78 87 1010.3
20260507030842 54 41 0.0 8.0 0.00 0.78 0.78 86 1010.2
20260507030338 54 32 3.0 7.0 0.00 0.78 0.78 86 1010.2
20260507025850 54 16 1.0 7.0 0.00 0.78 0.78 86 1010.1
20260507025406 54 43 1.0 7.0 0.00 0.78 0.78 85 1010.0
20260507024838 54 355 1.0 7.0 0.00 0.78 0.78 85 1010.1
20260507024355 54 283 5.0 10.0 0.00 0.78 0.78 85 1010.1
20260507023852 54 351 3.0 10.0 0.00 0.78 0.78 85 1010.0
20260507023349 54 359 1.0 11.0 0.00 0.78 0.78 86 1009.9
20260507022842 55 344 6.0 11.0 0.00 0.78 0.78 86 1009.8
20260507022358 55 18 3.0 10.0 0.00 0.78 0.78 87 1009.8
20260507021855 55 359 5.0 9.0 0.00 0.78 0.78 89 1009.7
20260507021350 55 16 3.0 7.0 0.00 0.78 0.78 89 1009.8
20260507020846 55 22 3.0 7.0 0.00 0.78 0.78 89 1009.9
20260507020341 55 25 3.0 7.0 0.00 0.78 0.78 89 1010.0
20260507015916 55 9 4.0 7.0 0.00 0.78 0.78 88 1009.9
20260507015353 56 348 4.0 10.0 0.00 0.78 0.78 88 1009.9
20260507014847 56 354 3.0 10.0 0.00 0.78 0.78 88 1009.9
20260507014343 56 351 2.0 7.0 0.00 0.78 0.78 89 1010.1
20260507013840 56 358 1.0 9.0 0.00 0.78 0.78 90 1010.2
20260507013354 56 13 3.0 9.0 0.00 0.78 0.78 89 1010.1
20260507012850 56 15 3.0 10.0 0.00 0.78 0.78 90 1010.1
20260507012406 57 32 4.0 10.0 0.00 0.78 0.78 90 1010.0
20260507011842 57 343 6.0 10.0 0.00 0.78 0.78 90 1009.8
20260507011340 57 333 4.0 9.0 0.00 0.78 0.78 91 1009.9
20260507010840 57 15 3.0 8.0 0.00 0.78 0.78 91 1009.7
20260507010355 58 29 5.0 7.0 0.00 0.78 0.78 91 1009.7
20260507005851 58 352 2.0 6.0 0.00 0.78 0.78 92 1009.6
20260507005348 59 27 0.0 5.0 0.00 0.78 0.78 92 1009.4
20260507004845 59 314 0.0 5.0 0.00 0.78 0.78 90 1009.3
20260507004341 59 253 0.0 2.0 0.00 0.78 0.78 91 1009.2
20260507003838 59 239 0.0 2.0 0.00 0.78 0.78 91 1009.0
20260507003354 59 236 0.0 9.0 0.00 0.78 0.78 90 1008.9
20260507002849 59 276 0.0 9.0 0.00 0.78 0.78 90 1008.9
20260507002405 59 260 1.0 4.0 0.00 0.78 0.78 90 1008.9
20260507001840 59 252 0.0 4.0 0.00 0.78 0.78 90 1008.5
20260507001356 59 233 0.0 5.0 0.00 0.78 0.78 91 1008.5
20260507000912 60 343 2.0 5.0 0.00 0.78 0.78 91 1008.3
20260507000350 60 263 0.0 4.0 0.00 0.78 0.78 92 1008.3
20260506235901 60 298 0.0 4.0 0.00 0.78 0.78 91 1008.0
20260506235355 60 252 0.0 4.0 0.00 0.78 0.78 91 1007.9
20260506234912 60 259 2.0 4.0 0.00 0.78 0.78 91 1007.8
20260506234347 60 269 1.0 4.0 0.00 0.78 0.78 92 1007.6
20260506233842 60 270 1.0 5.0 0.01 0.78 0.78 91 1007.6
20260506233417 61 18 0.0 7.0 0.03 0.78 0.78 91 1007.6
20260506232852 61 288 2.0 8.0 0.07 0.78 0.78 92 1007.6
20260506232347 61 239 1.0 8.0 0.26 0.78 0.78 94 1007.7
20260506231843 61 353 1.0 6.0 0.29 0.78 0.78 96 1007.8
20260506231343 61 264 1.0 6.0 0.33 0.78 0.78 96 1007.6
20260506230839 61 280 3.0 6.0 0.33 0.78 0.78 97 1007.5
20260506230355 61 284 2.0 6.0 0.33 0.78 0.78 97 1007.6
20260506225850 61 278 2.0 5.0 0.33 0.78 0.78 97 1007.5
20260506225348 61 239 2.0 3.0 0.33 0.78 0.78 97 1007.5
20260506224844 61 276 0.0 4.0 0.33 0.78 0.78 97 1007.5
20260506224400 61 276 2.0 6.0 0.33 0.78 0.78 97 1007.3
20260506223914 61 277 4.0 6.0 0.33 0.78 0.78 97 1007.3
20260506223350 62 308 2.0 8.0 0.31 0.76 0.76 97 1007.4
20260506222845 63 121 3.0 8.0 0.26 0.71 0.71 96 1007.1
20260506222338 64 280 5.0 7.0 0.07 0.52 0.52 95 1007.1
20260506221854 64 286 2.0 4.0 0.04 0.49 0.49 94 1007.0
20260506221411 65 281 0.0 6.0 0.00 0.45 0.45 92 1006.9
20260506220847 65 281 4.0 6.0 0.00 0.45 0.45 92 1006.8
20260506220342 66 291 1.0 4.0 0.00 0.45 0.45 91 1006.6
20260506215856 66 245 1.0 4.0 0.00 0.45 0.45 90 1006.6
20260506215413 66 245 2.0 4.0 0.00 0.45 0.45 89 1006.6
20260506214849 66 250 0.0 6.0 0.00 0.45 0.45 90 1006.6
20260506214344 66 242 3.0 6.0 0.00 0.45 0.45 89 1006.6
20260506213841 66 236 2.0 6.0 0.00 0.45 0.45 89 1006.4
20260506213357 66 242 1.0 5.0 0.00 0.45 0.45 91 1006.3
20260506212853 66 262 0.0 5.0 0.00 0.45 0.45 91 1006.4
20260506212409 66 259 3.0 6.0 0.00 0.45 0.45 91 1006.5
20260506211843 66 243 1.0 9.0 0.00 0.45 0.45 92 1006.5
20260506211359 65 253 6.0 9.0 0.00 0.45 0.45 91 1006.4
20260506210838 65 242 4.0 9.0 0.00 0.45 0.45 93 1006.4
20260506210411 65 226 3.0 9.0 0.00 0.45 0.45 93 1006.3
20260506205848 65 250 3.0 8.0 0.00 0.45 0.45 94 1006.3
20260506205345 65 246 2.0 6.0 0.00 0.45 0.45 95 1006.3
20260506204841 64 242 3.0 7.0 0.00 0.45 0.45 96 1006.3
20260506204358 65 236 1.0 7.0 0.00 0.45 0.45 97 1006.3
20260506203914 65 242 3.0 7.0 0.00 0.45 0.45 98 1006.2
20260506203351 65 203 2.0 8.0 0.00 0.45 0.45 100 1006.2
20260506202905 64 257 5.0 8.0 0.00 0.45 0.45 100 1006.2
20260506202401 64 233 2.0 6.0 0.00 0.45 0.45 100 1006.3
20260506201916 64 257 0.0 6.0 0.00 0.45 0.45 100 1006.3
20260506201352 64 226 3.0 6.0 0.00 0.45 0.45 100 1006.2
20260506200848 63 224 4.0 6.0 0.00 0.45 0.45 100 1006.2
20260506200406 63 235 2.0 5.0 0.00 0.45 0.45 100 1006.3
20260506195838 62 245 2.0 5.0 0.00 0.45 0.45 100 1006.4
20260506195413 62 229 2.0 5.0 0.00 0.45 0.45 100 1006.4
20260506194850 62 236 1.0 4.0 0.00 0.45 0.45 100 1006.6
20260506194347 62 242 1.0 4.0 0.00 0.45 0.45 100 1006.6
20260506193843 62 236 2.0 6.0 0.00 0.45 0.45 100 1006.6
20260506193400 62 239 1.0 6.0 0.00 0.45 0.45 100 1006.6
20260506192915 62 240 2.0 7.0 0.00 0.45 0.45 100 1006.6
20260506192349 62 226 4.0 7.0 0.00 0.45 0.45 100 1006.5
20260506191844 62 218 2.0 6.0 0.00 0.45 0.45 100 1006.5
20260506191340 62 263 3.0 9.0 0.00 0.45 0.45 100 1006.5
20260506190855 62 243 4.0 9.0 0.00 0.45 0.45 100 1006.6
20260506190412 62 214 3.0 10.0 0.00 0.45 0.45 100 1006.6
20260506185849 61 239 4.0 10.0 0.00 0.45 0.45 100 1006.6
20260506185346 61 278 3.0 9.0 0.00 0.45 0.45 100 1006.7
20260506184844 61 219 5.0 8.0 0.00 0.45 0.45 100 1006.8
20260506184340 61 248 3.0 8.0 0.00 0.45 0.45 100 1006.8
20260506183839 61 236 4.0 8.0 0.00 0.45 0.45 100 1006.8
20260506183355 61 255 4.0 11.0 0.00 0.45 0.45 100 1006.9
20260506182910 60 231 5.0 11.0 0.00 0.45 0.45 100 1006.9
20260506182344 61 215 3.0 11.0 0.00 0.45 0.45 100 1006.9
20260506181843 60 241 6.0 11.0 0.00 0.45 0.45 100 1007.0
20260506181339 60 245 3.0 8.0 0.00 0.45 0.45 100 1007.0
20260506180855 60 240 5.0 7.0 0.00 0.45 0.45 100 1007.0
20260506180351 60 253 3.0 7.0 0.00 0.45 0.45 100 1007.0
20260506175846 60 231 1.0 7.0 0.00 0.45 0.45 100 1007.2
20260506175343 60 265 2.0 8.0 0.00 0.45 0.45 100 1007.1
20260506174838 60 233 1.0 8.0 0.00 0.45 0.45 100 1007.1
20260506174355 60 245 4.0 8.0 0.00 0.45 0.45 100 1007.0
20260506173853 60 226 3.0 9.0 0.00 0.45 0.45 100 1007.1
20260506173350 60 259 4.0 9.0 0.00 0.45 0.45 100 1007.1
20260506172843 60 243 2.0 6.0 0.00 0.45 0.45 100 1007.1
20260506172338 60 242 1.0 9.0 0.00 0.45 0.45 100 1007.1
20260506171856 60 219 3.0 9.0 0.00 0.45 0.45 100 1007.1
20260506171352 60 194 0.0 5.0 0.00 0.45 0.45 100 1007.1
20260506170853 60 245 0.0 5.0 0.00 0.45 0.45 100 1007.2
20260506170349 60 229 0.0 9.0 0.00 0.45 0.45 100 1007.1
20260506165847 59 239 2.0 9.0 0.00 0.45 0.45 100 1007.2
20260506165403 59 245 2.0 7.0 0.00 0.45 0.45 100 1007.3
20260506164837 59 243 2.0 7.0 0.00 0.45 0.45 100 1007.3
20260506164354 59 240 2.0 7.0 0.00 0.45 0.45 100 1007.3
20260506163849 59 242 0.0 8.0 0.00 0.45 0.45 100 1007.3
20260506163347 59 200 3.0 8.0 0.01 0.45 0.45 100 1007.3
20260506162902 59 264 3.0 6.0 0.01 0.45 0.45 100 1007.3
20260506162337 59 257 1.0 6.0 0.02 0.45 0.45 100 1007.3
20260506161851 59 245 2.0 8.0 0.03 0.45 0.45 99 1007.4
20260506161347 59 246 4.0 8.0 0.04 0.45 0.45 99 1007.4
20260506160842 59 248 1.0 9.0 0.06 0.45 0.45 99 1007.5
20260506160338 59 212 3.0 10.0 0.07 0.45 0.45 99 1007.5
20260506155914 59 300 3.0 10.0 0.09 0.45 0.45 99 1007.4
20260506155349 59 232 0.0 5.0 0.10 0.45 0.45 99 1007.4
20260506154844 59 245 1.0 6.0 0.14 0.45 0.45 99 1007.3
20260506154341 59 253 3.0 6.0 0.18 0.45 0.45 99 1007.3
20260506153838 59 252 1.0 6.0 0.22 0.45 0.45 99 1007.1
20260506153414 59 248 1.0 6.0 0.24 0.45 0.45 99 1007.1
20260506152848 59 252 0.0 7.0 0.24 0.44 0.44 99 1007.4
20260506152345 59 242 2.0 7.0 0.24 0.43 0.43 99 1007.2
20260506151845 59 266 1.0 7.0 0.23 0.42 0.42 99 1007.3
20260506151341 59 225 3.0 7.0 0.22 0.41 0.41 99 1007.4
20260506150837 59 240 2.0 6.0 0.21 0.39 0.39 99 1007.4
20260506150353 59 249 1.0 7.0 0.21 0.38 0.38 99 1007.5
20260506145849 59 249 2.0 7.0 0.23 0.36 0.36 98 1007.7
20260506145347 59 240 2.0 6.0 0.24 0.35 0.35 98 1008.0
20260506144842 59 240 2.0 6.0 0.21 0.31 0.31 98 1008.3
20260506144339 59 240 3.0 6.0 0.18 0.27 0.27 98 1008.4
20260506143855 59 255 2.0 6.0 0.15 0.24 0.24 98 1008.4
20260506143353 59 243 0.0 5.0 0.14 0.21 0.21 97 1008.2
20260506142848 59 245 2.0 5.0 0.13 0.20 0.20 97 1008.1
20260506142404 59 256 1.0 3.0 0.13 0.20 0.20 97 1007.8
20260506141839 59 217 0.0 3.0 0.12 0.19 0.19 97 1007.8
20260506141356 59 243 0.0 3.0 0.12 0.19 0.19 97 1007.9
20260506140853 59 253 0.0 3.0 0.12 0.18 0.18 97 1007.8
20260506140350 59 236 0.0 1.0 0.11 0.17 0.17 97 1007.7
20260506135847 60 235 0.0 5.0 0.07 0.13 0.13 96 1007.5
20260506135403 60 233 0.0 5.0 0.05 0.11 0.11 96 1007.7
20260506134841 60 252 0.0 3.0 0.05 0.10 0.10 96 1007.9
20260506134342 60 239 0.0 4.0 0.04 0.09 0.09 96 1007.9
20260506133837 60 245 0.0 4.0 0.04 0.09 0.09 95 1007.8
20260506133355 60 245 1.0 3.0 0.04 0.08 0.08 96 1007.9
20260506132849 60 245 0.0 0.0 0.04 0.07 0.07 96 1007.9
20260506132346 60 245 0.0 1.0 0.05 0.07 0.07 96 1007.9
20260506131843 60 245 0.0 1.0 0.05 0.07 0.07 96 1007.9
20260506131339 60 245 0.0 1.0 0.05 0.07 0.07 96 1008.0
20260506130915 60 245 0.0 0.0 0.06 0.07 0.07 96 1007.8
20260506130350 60 245 0.0 0.0 0.05 0.06 0.06 95 1007.9
20260506125844 60 245 0.0 0.0 0.05 0.06 0.06 95 1008.0
20260506125342 60 245 0.0 0.0 0.05 0.06 0.06 94 1008.0
20260506124857 60 245 0.0 1.0 0.05 0.05 0.05 93 1008.0
20260506124350 60 244 0.0 1.0 0.05 0.05 0.05 93 1008.1
20260506123847 60 245 0.0 0.0 0.05 0.05 0.05 93 1008.2
20260506123344 60 245 0.0 0.0 0.04 0.04 0.04 92 1008.3
20260506122842 60 245 0.0 0.0 0.03 0.03 0.03 91 1008.4
20260506122338 61 245 0.0 1.0 0.02 0.02 0.02 90 1008.4
20260506121854 61 244 0.0 1.0 0.02 0.02 0.02 89 1008.5
20260506121412 61 245 0.0 1.0 0.02 0.02 0.02 88 1008.6
20260506120848 61 244 0.0 2.0 0.01 0.01 0.01 87 1008.5
20260506120405 62 245 0.0 2.0 0.01 0.01 0.01 86 1008.4
20260506115842 62 244 1.0 2.0 0.01 0.01 0.01 85 1008.2
20260506115339 62 245 0.0 0.0 0.01 0.01 0.01 84 1008.2
20260506114855 62 245 0.0 2.0 0.00 0.00 0.00 83 1008.0
20260506114353 63 245 0.0 5.0 0.00 0.00 0.00 82 1008.0
20260506113849 63 228 0.0 5.0 0.00 0.00 0.00 80 1007.9
20260506113406 63 207 0.0 5.0 0.00 0.00 0.00 79 1007.8
20260506112841 63 248 1.0 2.0 0.00 0.00 0.00 78 1007.9
20260506112338 63 248 0.0 2.0 0.00 0.00 0.00 78 1007.9
20260506111836 63 248 0.0 2.0 0.00 0.00 0.00 77 1007.8
20260506111353 63 248 0.0 2.0 0.00 0.00 0.00 77 1007.8
20260506110849 63 248 0.0 1.0 0.00 0.00 0.00 77 1007.6
20260506110347 62 248 0.0 1.0 0.00 0.00 0.00 78 1007.6
20260506105843 63 203 0.0 0.0 0.00 0.00 0.00 78 1007.5
20260506105340 63 203 0.0 0.0 0.00 0.00 0.00 77 1007.5
20260506104854 63 203 0.0 0.0 0.00 0.00 0.00 77 1007.5
20260506104352 63 203 0.0 0.0 0.00 0.00 0.00 76 1007.5
20260506103851 63 203 0.0 1.0 0.00 0.00 0.00 75 1007.5
20260506103353 63 203 0.0 1.0 0.00 0.00 0.00 75 1007.4
20260506102846 63 101 0.0 0.0 0.00 0.00 0.00 74 1007.2
20260506102343 63 100 0.0 1.0 0.00 0.00 0.00 74 1007.2
20260506101841 63 101 0.0 1.0 0.00 0.00 0.00 74 1007.2
20260506101336 63 101 0.0 0.0 0.00 0.00 0.00 73 1007.2
20260506100853 63 100 0.0 1.0 0.00 0.00 0.00 73 1007.0
20260506100351 63 101 0.0 2.0 0.00 0.00 0.00 73 1006.9
20260506095847 63 97 0.0 4.0 0.00 0.00 0.00 73 1006.9
20260506095345 63 239 0.0 4.0 0.00 0.00 0.00 73 1006.9
20260506094842 63 243 0.0 1.0 0.00 0.00 0.00 74 1007.0
20260506094340 63 243 0.0 1.0 0.00 0.00 0.00 73 1007.0
20260506093836 63 243 0.0 0.0 0.00 0.00 0.00 73 1007.0
20260506093353 63 243 0.0 3.0 0.00 0.00 0.00 73 1007.0
20260506092849 62 260 0.0 3.0 0.00 0.00 0.00 74 1007.0
20260506092344 62 200 0.0 3.0 0.00 0.00 0.00 75 1007.1
20260506091859 61 250 0.0 0.0 0.00 0.00 0.00 76 1007.1
20260506091339 61 250 0.0 0.0 0.00 0.00 0.00 77 1007.3
20260506090855 60 250 0.0 0.0 0.00 0.00 0.00 78 1007.3
20260506090351 60 251 0.0 0.0 0.00 0.00 0.00 79 1007.4
20260506085848 59 250 0.0 0.0 0.00 0.00 0.00 79 1007.4
20260506085344 59 250 0.0 0.0 0.00 0.00 0.00 78 1007.4
20260506084839 60 250 0.0 0.0 0.00 0.00 0.00 77 1007.3
20260506084416 61 250 0.0 0.0 0.00 0.00 0.00 76 1007.3
20260506083850 61 250 0.0 0.0 0.00 0.00 0.00 74 1007.2
20260506083408 62 250 0.0 0.0 0.00 0.00 0.00 73 1007.2
20260506082840 61 251 0.0 0.0 0.00 0.00 0.00 74 1007.3
20260506082414 61 250 0.0 0.0 0.00 0.00 0.00 74 1007.3
20260506081850 61 250 0.0 0.0 0.00 0.00 0.00 74 1007.3
20260506081347 61 249 0.0 0.0 0.00 0.00 0.00 73 1007.3
20260506080843 62 248 0.0 0.0 0.00 0.00 0.00 73 1007.4
20260506080339 62 249 0.0 0.0 0.00 0.00 0.00 71 1007.3
20260506073339 64 249 0.0 0.0 0.00 0.00 0.00 65 1007.4
20260506072854 64 249 0.0 0.0 0.00 0.00 0.00 65 1007.4
20260506072351 64 249 0.0 0.0 0.00 0.00 0.00 65 1007.5
20260506071851 64 249 0.0 0.0 0.00 0.00 0.00 64 1007.6
20260506071408 64 249 0.0 0.0 0.00 0.00 0.00 64 1007.6
20260506070843 64 248 0.0 0.0 0.00 0.00 0.00 64 1007.6
20260506070339 64 249 0.0 0.0 0.00 0.00 0.00 64 1007.7